[[{"header":{"parameterUnit":"m.s-1","parameterCategory":1,"la1":30.2991,"la2":30.254,"lo1":-89.0895,"lo2":-89.0444,"dy":0.0017,"dx":0.0017,"nx":28,"ny":28,"refTime":"2025-12-18T03:00:00:Z","depth":0,"parameterNumber":2,"parameterNumberName":"U-component_of_WINDS"},"data":[0,0,0,0,0,0,0,0,0,0,0,0,0,0,0,0,0,0,0,0,0,0,0,0,0,0,0,0,0,0,0,0,0,0,0,0,0,0,0,0,0,0,0,0,0,0,0,0,0,0,0,0,0,0,0,0,0,0,4.0127,4.0128,0,4.0271,4.0273,4.0275,4.0272,4.027,4.0268,4.0266,4.042,4.0426,4.0432,0,0,0,0,0,0,0,0,0,0,0,0,0,3.9856,3.9861,4.0127,4.0128,4.013,4.0271,4.0273,4.0275,4.0272,4.027,4.0267,4.0265,4.0418,4.0425,4.0433,0,0,0,0,0,0,0,0,0,0,0,0,0,3.9985,3.9863,4.0126,4.0145,4.0149,4.0271,4.0273,4.0276,4.0272,4.0269,4.0267,4.0264,4.0416,4.0425,4.0434,4.0548,0,0,4.0461,4.0465,0,0,0,0,0,0,0,0,3.9977,3.9995,4.0141,4.0144,4.0148,4.025,4.0234,4.0367,4.0273,4.0226,4.0266,4.0262,4.0367,4.0379,4.0413,4.0555,4.0562,4.0462,4.0467,4.0471,4.0473,0,0,0,0,0,0,0,3.9968,3.9988,4.0184,4.0143,4.0148,4.015,4.0165,4.026,4.0311,4.023,4.023,4.0247,4.0368,4.0405,4.0417,4.0564,4.0461,4.0469,4.0475,4.0478,4.0813,4.0816,0,0,0,0,0,0,3.9954,3.9981,4.0179,4.0188,4.0053,4.0157,4.0174,4.0221,4.031,4.0321,4.0249,4.0246,4.0391,4.0406,4.0422,4.0565,4.0471,4.0479,4.0484,4.0809,4.0814,4.0817,0,0,0,0,0,0,3.9949,3.9972,4.0174,4.0085,4.0111,4.0165,4.0217,4.0225,4.0261,4.0325,4.0335,4.0276,4.0389,4.041,4.0517,4.0571,4.0483,4.0491,4.0805,4.0811,4.0815,4.085,0,0,0,0,0,0,3.9941,3.997,4.0012,4.0086,4.0115,4.0264,4.0221,4.023,4.0276,4.0274,4.0353,4.0363,4.0388,4.0504,4.0526,4.0581,4.0498,4.0801,4.0808,4.0814,4.0845,4.0856,4.0866,0,0,0,0,0,3.9931,4.0016,4.0014,4.0038,4.0168,4.0267,4.0284,4.0309,4.028,4.0325,4.0366,4.0361,4.0561,4.0515,4.054,4.0599,4.0797,4.0806,4.0813,4.084,4.0854,4.0866,0,0,0,0,0,0,3.9948,4.0026,4.0024,4.0135,4.0194,4.0266,4.0322,4.0323,4.0392,4.0387,4.0418,4.0436,4.0545,4.0582,4.053,4.0717,4.0676,4.0689,4.0688,4.0702,4.0712,4.0702,4.0506,0,0,0,0,0,3.9965,4.0036,4.0101,4.0193,4.0222,4.0267,4.0311,4.0326,4.0389,4.0414,4.0463,4.0527,4.0605,4.0655,4.073,4.085,4.087,4.0903,4.0914,4.0922,4.0934,4.1005,4.1022,4.0843,4.0843,4.0843,0,0,4.0,4.0051,4.0094,4.0198,4.0245,4.0321,4.0288,4.0369,4.0427,4.0427,4.0532,4.0571,4.0644,4.076,4.0813,4.0795,4.0988,4.0932,4.0939,4.0946,4.1015,4.1032,4.1047,4.0849,4.0848,4.0847,0,0,4.0103,4.0148,4.0231,4.0279,4.0351,4.0381,4.0401,4.0474,4.0499,4.0604,4.0608,4.0678,4.081,4.0864,4.0908,4.1036,4.1035,4.1059,4.1115,4.1184,4.1198,4.1211,4.126,4.1277,4.107,4.1071,4.1071,0,4.0138,4.025,4.0274,4.0356,4.0403,4.0406,4.0493,4.0539,4.0633,4.0667,4.0644,4.0813,4.0862,4.0992,4.1024,4.1058,4.1086,4.1051,4.1194,4.1207,4.1219,4.1266,4.1284,4.1073,4.1073,4.1073,4.1072,0,4.0292,4.037,4.0429,4.0519,4.0573,4.0656,4.0696,4.0748,4.0759,4.0792,4.0903,4.0962,4.1051,4.1083,4.1094,4.1216,4.1203,4.1187,4.1147,4.1238,4.1284,4.1301,4.1077,4.1076,4.1075,4.1075,0,0,4.0409,4.0512,4.0534,4.0576,4.0657,4.072,4.0806,4.0891,4.0937,4.1003,4.1078,4.1191,4.1178,4.1229,4.1247,4.1307,4.1409,4.1284,4.1287,4.1308,4.1552,4.1565,4.1585,4.1409,4.1412,4.1415,4.1547,0,4.0523,4.0673,4.0699,4.0832,4.0907,4.0912,4.0988,4.1048,4.1083,4.1154,4.1193,4.1274,4.1248,4.128,4.1339,4.1384,4.1459,4.1374,4.1483,4.1487,4.1466,4.1608,4.1621,4.1743,4.1564,4.1567,4.1569,0,4.0675,4.0744,4.0885,4.0959,4.0992,4.1059,4.1142,4.1208,4.1278,4.13,4.1357,4.1369,4.1463,4.1418,4.155,4.1492,4.1539,4.1568,4.1573,4.1586,4.1534,4.1627,4.1781,4.1801,4.1597,4.1594,4.1592,0,4.0751,4.0879,4.098,4.1016,4.1104,4.1152,4.1192,4.1259,4.131,4.1383,4.1417,4.1501,4.1547,4.1613,4.1649,4.1612,4.178,4.1737,4.1804,4.1803,4.184,4.1837,4.2006,4.1866,4.1865,4.1865,4.1865,0,4.0876,4.0963,4.1015,4.1078,4.1177,4.1207,4.1305,4.1344,4.1404,4.1477,4.1487,4.1556,4.1598,4.1675,4.1703,4.1811,4.1831,4.1854,4.1861,4.1854,4.1851,4.1886,4.1879,4.187,4.1869,4.1868,4.1867,0,4.0977,4.1015,4.1127,4.1202,4.1223,4.1293,4.1359,4.1423,4.1457,4.155,4.1574,4.163,4.1721,4.1762,4.1875,4.1895,4.2018,4.2018,4.1993,4.1997,4.2062,4.2056,4.2261,4.2291,4.2128,4.2129,4.2131,0,4.1055,4.1122,4.1205,4.1254,4.1295,4.1373,4.1426,4.1459,4.1514,4.1601,4.1655,4.1745,4.182,4.1965,4.2018,4.2105,4.2109,4.2175,4.2123,4.2115,4.2114,4.2111,4.2119,4.2185,4.2187,4.2188,4.2189,0,4.1192,4.1208,4.1282,4.1364,4.1426,4.1492,4.1557,4.1598,4.1642,4.1704,4.1796,4.1854,4.1969,4.2061,4.2152,4.2197,4.2203,4.2205,4.2226,4.222,4.2205,4.2217,4.2022,4.22,4.2199,4.2198,4.2198,4.2197,4.1286,4.1347,4.1416,4.1499,4.1552,4.1613,4.1677,4.1721,4.1797,4.1893,4.1908,4.2008,4.2081,4.2204,4.2252,4.2333,4.2318,4.2346,4.2354,4.2362,4.2367,4.219,4.2349,4.2349,4.2349,4.2348,4.2348,0,4.1426,4.1471,4.1547,4.1638,4.1705,4.1701,4.1775,4.1832,4.1918,4.1984,4.2058,4.2166,4.2256,4.2317,4.2409,4.2462,4.2467,4.2485,4.2483,4.2494,4.2373,4.2348,4.248,4.248,4.248,4.248,4.248,4.248,4.1506,4.1611,4.1636,4.1768,4.1813,4.1909,4.1952,4.201,4.2064,4.2184,4.2258,4.2296,4.2362,4.2459,4.2543,4.2559,4.2594,4.2613,4.2629,4.2516,4.2502,4.2489,4.2465,4.262,4.262,4.2743,4.2744,4.2745]},{"header":{"parameterUnit":"m.s-1","parameterCategory":1,"la1":30.2991,"la2":30.254,"lo1":-89.0895,"lo2":-89.0444,"dy":0.0017,"dx":0.0017,"nx":28,"ny":28,"refTime":"2025-12-18T03:00:00:Z","depth":0,"parameterNumber":3,"parameterNumberName":"V-component_of_WINDS"},"data":[0,0,0,0,0,0,0,0,0,0,0,0,0,0,0,0,0,0,0,0,0,0,0,0,0,0,0,0,0,0,0,0,0,0,0,0,0,0,0,0,0,0,0,0,0,0,0,0,0,0,0,0,0,0,0,0,0,0,1.5913,1.5915,0,1.6064,1.6066,1.6068,1.6081,1.6079,1.6078,1.6076,1.6233,1.6239,1.6244,0,0,0,0,0,0,0,0,0,0,0,0,0,1.5639,1.5644,1.5913,1.5915,1.5917,1.6064,1.6066,1.6068,1.6081,1.6079,1.6077,1.6076,1.6231,1.6238,1.6245,0,0,0,0,0,0,0,0,0,0,0,0,0,1.5771,1.5646,1.5913,1.5941,1.5945,1.6064,1.6066,1.6069,1.6082,1.6079,1.6077,1.6075,1.6229,1.6237,1.6246,1.6347,0,0,1.6272,1.6275,0,0,0,0,0,0,0,0,1.5763,1.5781,1.5935,1.594,1.5944,1.6051,1.6027,1.6162,1.6082,1.603,1.6076,1.6073,1.6175,1.6188,1.6221,1.6354,1.6361,1.6273,1.6278,1.6281,1.6284,0,0,0,0,0,0,0,1.5754,1.5775,1.5973,1.5937,1.5943,1.5947,1.5963,1.6053,1.6114,1.6034,1.6036,1.6053,1.6177,1.6213,1.6225,1.6363,1.6272,1.628,1.6285,1.6288,1.6588,1.6591,0,0,0,0,0,0,1.5739,1.5767,1.5968,1.5978,1.5846,1.5954,1.5972,1.6019,1.6113,1.6125,1.6055,1.6053,1.62,1.6215,1.6231,1.6356,1.6281,1.6289,1.6294,1.6585,1.6589,1.6592,0,0,0,0,0,0,1.5733,1.5757,1.5962,1.5873,1.5899,1.5961,1.6015,1.6024,1.606,1.6129,1.614,1.6081,1.6198,1.6219,1.6318,1.6362,1.6293,1.6301,1.6582,1.6586,1.659,1.6608,0,0,0,0,0,0,1.5726,1.5755,1.5794,1.5873,1.5904,1.6046,1.6017,1.6028,1.6074,1.6073,1.6156,1.6167,1.6198,1.6305,1.6326,1.6373,1.6307,1.6578,1.6584,1.6589,1.6604,1.6612,1.662,0,0,0,0,0,1.5716,1.5793,1.5795,1.582,1.5953,1.6049,1.6066,1.61,1.6078,1.6118,1.6162,1.6165,1.6353,1.6315,1.6339,1.6389,1.6576,1.6582,1.6588,1.66,1.6611,1.6619,0,0,0,0,0,0,1.5717,1.5804,1.5808,1.5913,1.5973,1.6051,1.6102,1.6109,1.6178,1.6174,1.6213,1.6231,1.633,1.6369,1.6325,1.6492,1.6462,1.6474,1.6463,1.6474,1.6481,1.6471,1.6315,0,0,0,0,0,1.573,1.5799,1.5871,1.5957,1.5987,1.6039,1.6082,1.6103,1.6167,1.6193,1.6245,1.6308,1.6382,1.6429,1.6501,1.6609,1.6628,1.6655,1.6662,1.6669,1.6679,1.674,1.6753,1.6613,1.6613,1.6612,0,0,1.5756,1.5812,1.5854,1.5959,1.6008,1.6081,1.6061,1.6138,1.6193,1.6205,1.6302,1.6342,1.6416,1.652,1.6568,1.6556,1.6722,1.6677,1.6681,1.6688,1.6748,1.6761,1.6773,1.6617,1.6616,1.6615,0,0,1.5843,1.5891,1.5969,1.6018,1.6093,1.6127,1.6145,1.6222,1.6249,1.6347,1.6358,1.6424,1.6549,1.6601,1.6644,1.675,1.6756,1.6772,1.6814,1.6874,1.6885,1.6895,1.6934,1.6948,1.6781,1.6781,1.6782,0,1.5867,1.5976,1.6008,1.6085,1.6131,1.6145,1.6224,1.6271,1.6366,1.6398,1.6381,1.654,1.659,1.6708,1.6733,1.6767,1.6791,1.6764,1.688,1.6891,1.6901,1.6939,1.6953,1.6783,1.6783,1.6783,1.6783,0,1.6002,1.6078,1.6131,1.6222,1.6274,1.6352,1.6397,1.6446,1.6461,1.6497,1.6597,1.6658,1.6742,1.6771,1.6787,1.6891,1.6881,1.6872,1.6844,1.6915,1.6952,1.6966,1.6785,1.6785,1.6784,1.6784,0,0,1.6095,1.6202,1.6221,1.6263,1.6346,1.6405,1.6484,1.6566,1.6608,1.6673,1.6741,1.6846,1.6839,1.6888,1.6909,1.6961,1.7043,1.6946,1.6948,1.6964,1.7163,1.7171,1.7187,1.7046,1.7049,1.7052,1.7158,0,1.6192,1.6332,1.6363,1.6484,1.6555,1.6569,1.6637,1.6697,1.6732,1.6798,1.6838,1.6913,1.6896,1.6926,1.6977,1.7022,1.7084,1.7014,1.7112,1.7115,1.7095,1.7206,1.7214,1.7312,1.7172,1.7175,1.7176,0,1.6323,1.6391,1.6519,1.6593,1.6624,1.6686,1.6764,1.6826,1.6893,1.6916,1.697,1.6987,1.707,1.7036,1.7152,1.7104,1.7146,1.7174,1.7178,1.719,1.7151,1.7223,1.7344,1.7359,1.7199,1.7197,1.7195,0,1.638,1.6502,1.6595,1.663,1.6719,1.6762,1.6801,1.6866,1.6914,1.6982,1.7014,1.7091,1.7134,1.7193,1.7231,1.7202,1.7345,1.7313,1.7367,1.7367,1.7398,1.7396,1.7529,1.7422,1.7422,1.7421,1.7421,0,1.6486,1.6564,1.6622,1.6679,1.6768,1.6803,1.689,1.6929,1.6987,1.7053,1.7069,1.713,1.7175,1.7243,1.7273,1.7366,1.7385,1.7406,1.7413,1.7406,1.7403,1.7435,1.743,1.7425,1.7424,1.7424,1.7423,0,1.6565,1.6606,1.6709,1.6784,1.6805,1.6867,1.6932,1.6989,1.7025,1.7108,1.713,1.7186,1.7267,1.731,1.7411,1.7431,1.7536,1.7539,1.7513,1.7517,1.7569,1.7564,1.7729,1.7753,1.7627,1.7628,1.7629,0,1.663,1.6691,1.6773,1.6818,1.6858,1.693,1.6979,1.7015,1.7066,1.7147,1.7195,1.7276,1.7344,1.7473,1.7524,1.7602,1.7607,1.766,1.7619,1.761,1.7611,1.7607,1.7614,1.7667,1.7668,1.7669,1.767,0,1.6743,1.676,1.6829,1.6906,1.6963,1.7026,1.7087,1.7123,1.717,1.7226,1.7309,1.7361,1.7465,1.7547,1.7628,1.767,1.7679,1.7682,1.7699,1.7693,1.7677,1.7688,1.7535,1.7679,1.7678,1.7677,1.7677,1.7676,1.6818,1.6873,1.694,1.7016,1.7066,1.7124,1.7181,1.7223,1.7293,1.738,1.7398,1.7486,1.7553,1.7663,1.7707,1.7777,1.7767,1.7791,1.7797,1.7803,1.7806,1.7664,1.7792,1.7792,1.7792,1.7792,1.7791,0,1.6933,1.6976,1.7046,1.7132,1.7193,1.7194,1.7263,1.7314,1.7391,1.7452,1.7518,1.7614,1.7693,1.775,1.7831,1.7876,1.7883,1.7897,1.7895,1.7904,1.781,1.7788,1.789,1.789,1.789,1.789,1.789,1.789,1.7,1.7093,1.7119,1.7238,1.7281,1.7367,1.7406,1.746,1.7509,1.7615,1.7681,1.7717,1.7777,1.7863,1.7936,1.795,1.798,1.7995,1.801,1.7921,1.7911,1.7901,1.7881,1.8,1.8,1.8098,1.8099,1.81]}]]